Weather History for KEGI - May, 2013

Change the Weather History Date:

Thursday, May 2, 2013

  Actual Average Record
Temperature  
Mean Temperature 70 °F -  
Max Temperature 77 °F - - ()
Min Temperature 64 °F - - ()
Cooling Degree Days 6    
Growing Degree Days 20 (Base 50)    
Moisture  
Dew Point 63 °F    
Average Humidity 80    
Maximum Humidity 91    
Minimum Humidity 65    
Precipitation  
Precipitation 0.03 in - - ()
Sea Level Pressure  
Sea Level Pressure 29.97 in    
Wind  
Wind Speed 10 mph (ENE)    
Max Wind Speed 15 mph    
Max Gust Speed 22 mph    
Visibility 10 miles    
Events Rain    
T = Trace of Precipitation, MM = Missing Value Source: NWS Daily Summary

Daily Weather History Graph

Daily Weather History Graph

Search for Another Location

Airport or City:

Trip Planner

Search our weather history database for the weather conditions in past years. The results will help you decide how hot, cold, wet, or windy it might be!

Date:

Astronomy

May. 02, 2013 Rise Set
Actual Time 6:01 AM CDT 7:25 PM CDT
Civil Twilight 5:35 AM CDT 7:51 PM CDT
Nautical Twilight 5:04 AM CDT 8:21 PM CDT
Astronomical Twilight 4:33 AM CDT 8:53 PM CDT
Moon 1:17 AM CDT (5/2) 12:42 PM CDT (5/2)
Length of Visible Light 14h 15m
Length of Day
13h 24m
Waning Gibbous, 47% of the Moon is Illuminated
May 2
Waning Gibbous
May 9
New
May 17
First Quarter
May 24
Full
May 31
Last Quarter

Hourly Weather History & Observations

Time (CDT) Temp. Dew Point Humidity Pressure Visibility Wind Dir Wind Speed Gust Speed Precip Events Conditions
12:58 AM 66.7 °F 62.8 °F 87% 29.98 in 10.0 mi East 12.7 mph 20.7 mph N/A   Mostly Cloudy
1:03 AM 66.2 °F 62.6 °F 88% 29.96 in 10.0 mi East 12.7 mph 21.9 mph N/A   Mostly Cloudy
1:58 AM 66.7 °F 62.2 °F 85% 29.98 in 10.0 mi East 15.0 mph 19.6 mph N/A   Overcast
2:58 AM 66.4 °F 62.2 °F 86% 29.97 in 10.0 mi East 11.5 mph 19.6 mph N/A   Overcast
3:58 AM 66.2 °F 61.7 °F 85% 29.96 in 10.0 mi East 13.8 mph 18.4 mph N/A   Overcast
4:58 AM 65.1 °F 61.3 °F 88% 29.97 in 10.0 mi ENE 11.5 mph - N/A   Overcast
5:58 AM 64.8 °F 60.3 °F 85% 29.99 in 10.0 mi East 10.4 mph 19.6 mph N/A   Overcast
6:58 AM 64.2 °F 59.4 °F 84% 30.01 in 10.0 mi ENE 8.1 mph - N/A   Scattered Clouds
7:58 AM 66.4 °F 59.9 °F 80% 30.01 in 10.0 mi East 11.5 mph 19.6 mph N/A   Partly Cloudy
8:43 AM 68.0 °F 60.8 °F 78% 30.01 in 10.0 mi ENE 6.9 mph - N/A   Scattered Clouds
8:56 AM 68.5 °F 60.8 °F 76% 30.01 in 10.0 mi East 10.4 mph - N/A   Mostly Cloudy
8:58 AM 68.5 °F 60.8 °F 76% 30.02 in 10.0 mi East 8.1 mph - N/A   Scattered Clouds
9:18 AM 69.8 °F 60.8 °F 73% 30.00 in 10.0 mi East 11.5 mph - N/A   Mostly Cloudy
9:55 AM 69.3 °F 61.3 °F 76% 30.01 in 10.0 mi East 8.1 mph 17.3 mph N/A   Overcast
10:55 AM 69.8 °F 62.2 °F 77% 30.01 in 10.0 mi ENE 10.4 mph - N/A   Overcast
11:55 AM 70.0 °F 63.0 °F 78% 30.00 in 10.0 mi East 9.2 mph - N/A   Overcast
12:55 PM 71.6 °F 64.4 °F 78% - 10.0 mi East 6.9 mph - N/A   Overcast
1:55 PM 72.5 °F 64.4 °F 76% 29.97 in 10.0 mi NE 9.2 mph - 0.00 in   Light Drizzle
2:05 PM 71.6 °F 64.4 °F 78% 29.97 in 10.0 mi NE 8.1 mph - N/A   Mostly Cloudy
2:45 PM 75.2 °F 64.4 °F 69% 29.95 in 10.0 mi ENE 8.1 mph - N/A   Mostly Cloudy
2:55 PM 74.7 °F 64.4 °F 70% 29.94 in 10.0 mi ENE 10.4 mph - 0.00 in   Mostly Cloudy
3:55 PM 76.3 °F 64.8 °F 67% 29.92 in 10.0 mi NE 9.2 mph - N/A   Mostly Cloudy
4:33 PM 77.0 °F 64.4 °F 65% 29.92 in 10.0 mi ENE 12.7 mph - N/A Rain Light Rain Showers
4:55 PM 73.2 °F 66.4 °F 79% 29.92 in 10.0 mi ENE 4.6 mph - 0.00 in   Mostly Cloudy
5:31 PM 75.2 °F 66.2 °F 73% 29.91 in 10.0 mi East 11.5 mph 19.6 mph N/A Rain Light Rain
5:55 PM 72.3 °F 66.0 °F 80% 29.92 in 10.0 mi ENE 3.5 mph - 0.00 in   Mostly Cloudy
6:55 PM 71.8 °F 63.1 °F 74% 29.92 in 10.0 mi ENE 3.5 mph - N/A   Mostly Cloudy
7:55 PM 68.0 °F 62.4 °F 82% 29.94 in 10.0 mi ENE 3.5 mph - N/A   Mostly Cloudy
8:16 PM 68.0 °F 62.6 °F 83% 29.95 in 10.0 mi ENE 3.5 mph - N/A Rain Light Rain
8:46 PM 68.0 °F 62.6 °F 83% 29.96 in 10.0 mi ENE 3.5 mph - N/A   Mostly Cloudy
8:55 PM 67.3 °F 64.6 °F 91% 29.97 in 10.0 mi ENE 5.8 mph - 0.03 in   Mostly Cloudy
9:55 PM 67.6 °F 62.6 °F 84% 29.96 in 10.0 mi ENE 5.8 mph - N/A   Mostly Cloudy
10:55 PM 67.3 °F 62.2 °F 84% 29.96 in 10.0 mi ENE 5.8 mph - N/A   Mostly Cloudy
11:27 PM 68.0 °F 62.6 °F 83% 29.96 in 10.0 mi ENE 5.8 mph - N/A   Mostly Cloudy
11:31 PM 68.0 °F 62.6 °F 83% 29.96 in 10.0 mi ENE 4.6 mph - N/A   Mostly Cloudy
11:33 PM 68.0 °F 62.6 °F 83% 29.96 in 10.0 mi ENE 3.5 mph - N/A   Mostly Cloudy
11:36 PM 68.0 °F 62.6 °F 83% 29.96 in 10.0 mi ENE 4.6 mph - N/A   Light Drizzle
11:39 PM 66.2 °F 62.6 °F 88% 29.96 in 10.0 mi ENE 4.6 mph - N/A   Light Drizzle
11:41 PM 68.0 °F 62.6 °F 83% 29.95 in 10.0 mi ENE 4.6 mph - N/A   Light Drizzle
11:55 PM 66.6 °F 63.1 °F 89% 29.96 in 10.0 mi ENE 4.6 mph - N/A   Light Drizzle